Location: Peterborough
(44.3091°N, 78.3197°W)
Time: 16:51:49
(UTC-04:00)

Explorer 7 - Pass Details

Date: 28 March 2023
Orbit: 477 x 653 km, 50.3° (Epoch: 04 June)

Event Time Altitude Azimuth Distance (km) Brightness Sun altitude
Rises 23:08:30 0° 293° (WNW) 2,725 11.2 -34.3°
Enters shadow 23:10:59 10° 282° (WNW) 1,797 10.0 -34.6°
Reaches altitude 10° 23:11:00 10° 282° (WNW) 1,793 - -34.6°
Maximum altitude 23:14:31 29° 222° (SW) 971 - -35.0°
Drops below altitude 10° 23:17:53 10° 161° (SSE) 1,701 - -35.3°
Sets 23:20:11 0° 150° (SSE) 2,557 - -35.6°
